Simultaneous Nadir Overpasses (SNOs) Predictions

Prediction of SNOs between LANDSAT-8 and METOP-A Satellite Orbit:

Table of predicted SNOs for the next 14.0 days since TLE Epoch: 3/2/2018
Index Date (LANDSAT-8) Time (LANDSAT-8) Lat,Lon (LANDSAT-8) SZA (LANDSAT-8 ) Date (METOP-A) Time (METOP-A) Lat,Lon (METOP-A) SZA (METOP-A ) Distance(km) Time Diff (sec)
1 03/03/2018 17:05:45 -81.30, 145.92 90.14 03/03/2018 17:05:20 -81.30, 145.82 90.16 1.64 25
2 03/03/2018 17:55:11 81.31, -46.33 89.87 03/03/2018 17:56:00 81.31, -46.45 89.88 2.12 49
3 03/06/2018 12:39:57 -81.31,-147.38 91.17 03/06/2018 12:39:35 -81.31,-147.34 91.18 0.87 22
4 03/06/2018 13:29:23 81.32, 20.34 88.83 03/06/2018 13:30:15 81.32, 20.35 88.86 0.24 52
5 03/09/2018 08:14:11 -81.30, -81.10 92.27 03/09/2018 08:13:53 -81.30, -81.29 92.30 3.19 18
6 03/09/2018 09:03:36 81.33, 86.97 87.78 03/09/2018 09:04:31 81.33, 87.14 87.82 2.88 55
7 03/12/2018 03:48:24 -81.31, -14.49 93.33 03/12/2018 03:48:09 -81.31, -14.49 93.34 0.47 15
8 03/12/2018 04:37:50 81.32, 153.18 86.67 03/12/2018 04:38:49 81.32, 153.12 86.69 0.97 59
9 03/14/2018 23:22:37 -81.30, 51.71 94.45 03/14/2018 23:22:26 -81.30, 51.52 94.47 3.30 11




NCC Satellite Simultaneous Nadir Overpasses (SNOs) Prediction Service
